User: anonymous   Login
Location: Unspecified
(0.0000°N, 0.0000°E)
Time: 09:21:55
(UTC+02:00)
Language:

ARIANE 5 R/B - Orbit

View from above orbital plane
View from above orbital plane
View from above satellite
View from above satellite

Ground track
Ground track

The orbit data is extracted from the following two-line orbital elements,

1 28787U 05028B   16125.51972959 -.00000099 +00000-0 +26930-4 0  9992
2 28787 006.6298 196.4217 7174727 249.1975 107.7758 02.26566786088826
Epoch (UTC): 04 May 2016 12:28:24
Eccentricity: 0.7174727
inclination: 6.6298°
perigee height: 540 km
apogee height: 35677 km
right ascension of ascending node: 196.4217°
argument of perigee: 249.1975°
revolutions per day: 2.26566786
mean anomaly at epoch: 107.7758°
orbit number at epoch: 8882

The dashed part of the orbit path shows where the satellite is in the earth's shadow,  

DLR